This demonstration page uses our WeatherBlox Daily Observations layout. Learn more.

Left ArrowRight Arrow

Hourly Observations for August 30, 2017

Temp ( °F °C ) Dew Point ( °F °C ) Humidity (%) Winds ( mph kmh ) Pressure ( in mb ) Visibility ( mi km ) Precip ( " mm )
12:51 am 00:51 Clear 77 25 54 12.2 45 45 ENE 8 13 29.84 1010 10 16.0934 0 0
1:51 am 01:51 Clear 74 23.3 56 13.3 54 54 ESE 8 13 29.84 1010 10 16.0934 0 0
2:51 am 02:51 Clear 73 22.8 56 13.3 55 55 ESE 13 20 29.83 1010 10 16.0934 0 0
3:51 am 03:51 Clear 73 22.8 55 12.8 53 53 ESE 9 15 29.83 1010 10 16.0934 0 0
4:51 am 04:51 Clear 72 22.2 53 11.7 52 52 ESE 7 11 29.84 1011 10 16.0934 0 0
5:51 am 05:51 Clear 72 22.2 54 12.2 53 53 ESE 10 17 29.87 1012 10 16.0934 0 0
6:51 am 06:51 Sunny 73 22.8 55 12.8 53 53 ESE 9 15 29.9 1013 10 16.0934 0 0
7:51 am 07:51 Sunny 80 26.7 54 12.2 41 41 E 13 20 29.91 1013 10 16.0934 0 0
8:51 am 08:51 Sunny 83 28.3 53 11.7 36 36 E 12 19 29.92 1013 10 16.0934 0 0
9:51 am 09:51 Sunny 86 30 51 10.6 30 30 SSE 9 15 29.93 1013 10 16.0934 0 0
10:51 am 10:51 Sunny 90 32.2 49 9.4 24 24 SSE 13 20 29.9 1013 10 16.0934 0 0
11:51 am 11:51 Sunny 93 33.9 48 8.9 21 21 SSE 7 11 29.87 1011 10 16.0934 0 0
12:51 pm 12:51 Sunny 95 35 47 8.3 19 19 E 12 19 29.84 1011 10 16.0934 0 0
1:51 pm 13:51 Sunny 95 35 46 7.8 19 19 SE 10 17 29.81 1010 10 16.0934 0 0
2:51 pm 14:51 Sunny 96 35.6 45 7.2 17 17 ESE 14 22 29.78 1009 10 16.0934 0 0
3:51 pm 15:51 Sunny 97 36.1 44 6.7 16 16 ESE 15 24 29.76 1008 10 16.0934 0 0
4:51 pm 16:51 Sunny 95 35 42 5.6 16 16 SSE 14 22 29.76 1008 10 16.0934 0 0
5:51 pm 17:51 Sunny 94 34.4 42 5.6 17 17 SSE 9 15 29.76 1008 10 16.0934 0 0
6:51 pm 18:51 Clear 89 31.7 44 6.7 21 21 SSE 9 15 29.78 1008 10 16.0934 0 0
7:51 pm 19:51 Clear 85 29.4 44 6.7 24 24 SE 6 9 29.8 1009 10 16.0934 0 0
8:51 pm 20:51 Clear 81 27.2 43 6.1 26 26 E 6 9 29.83 1010 10 16.0934 0 0
9:51 pm 21:51 Clear 79 26.1 44 6.7 29 29 SE 6 9 29.85 1011 10 16.0934 0 0
10:51 pm 22:51 Clear 77 25 44 6.7 31 31 ENE 6 9 29.85 1011 10 16.0934 0 0
11:51 pm 23:51 Clear 73 22.8 44 6.7 35 35 E 7 11 29.85 1011 10 16.0934 0 0

Powered by AerisWeather